Location: ActonStarParty
(42.4766°N, 71.4538°W)
Time: 07:25:21
(UTC-04:00)

Amateur Radio Satellites - All Passes

Search period start: 25 May 2015 06:55
Search period end: 26 May 2015 06:55
Location: ActonStarParty, 42.4766°N, 71.4538°W

Satellite Date Start Highest point End Downlink Frequencies (MHz)
Time Altitude Azimuth
YUBILEINY 25 May 07:05:42 07:13:36 41° 87° (E) 07:21:36 435.215
M-CUBED/EXP-1 PRIME 25 May 07:12:47 07:17:05 59° 254° (WSW) 07:21:01 437.505
VERMONT LUNAR 25 May 07:17:57 07:20:44 27° 201° (SSW) 07:23:31 437.305
PHONESAT 2.4 25 May 07:20:19 07:23:43 55° 189° (S) 07:27:06 2401.200-2431.200
AUBIESAT-1 25 May 07:23:09 07:27:19 51° 254° (WSW) 07:31:11 437.475
CUTE-I 25 May 07:24:41 07:30:04 81° 286° (WNW) 07:35:26 437.470
ISS 25 May 07:27:01 07:29:56 30° 223° (SW) 07:32:50 145.825
RS-15 25 May 07:38:44 07:45:13 19° 101° (E) 07:52:28 29.354- 29.394
CUBESAT XI-V 25 May 07:43:35 07:45:56 13° 272° (W) 07:48:04 437.345
Cubesat XI-IV 25 May 07:44:44 07:49:59 54° 289° (WNW) 07:55:11 437.490
STRAND 1 25 May 08:09:22 08:13:06 20° 269° (W) 08:16:42 437.568
AO-7 25 May 08:09:26 08:11:36 11° 319° (NW) 08:13:18 29.400- 29.500
Cosmos 2491 25 May 08:09:28 08:17:35 41° 273° (W) 08:25:29 435.465 / 435.565
CANX-2 25 May 08:16:45 08:18:15 12° 88° (E) 08:19:59 2200.000
CUTE 1.7 + AOD 2 25 May 08:20:39 08:22:08 12° 88° (E) 08:23:51 437.475
PCSat 25 May 08:24:15 08:25:43 11° 32° (NNE) 08:27:24 145.827
DOVE 4 25 May 08:28:24 08:31:58 19° 89° (E) 08:35:34 437.250
AIST 1 25 May 08:31:01 08:35:18 55° 266° (W) 08:39:35
BRITE-PL 25 May 08:40:48 08:46:27 61° 99° (E) 08:51:52 437.365/2234.400
SEEDS 25 May 08:45:24 08:48:18 19° 91° (E) 08:51:19 437.485
GOMX 1 25 May 08:54:12 08:59:31 52° 98° (E) 09:04:34 467.674
PHONESAT 2.4 25 May 08:58:43 09:01:29 22° 205° (SSW) 09:04:13 2401.200-2431.200
HO-68 25 May 09:00:49 09:07:32 43° 98° (E) 09:14:17 435.675
COMPASS 1 25 May 09:01:44 09:04:59 22° 93° (E) 09:08:19 437.405
YUBILEINY 25 May 09:02:00 09:10:22 46° 287° (WNW) 09:18:39 435.215
CUTE-I 25 May 09:07:17 09:09:23 12° 302° (WNW) 09:11:13 437.470
AAUSAT CUBESAT 2 25 May 09:15:28 09:19:00 27° 95° (E) 09:22:34 437.432
ANTELSAT 25 May 09:25:20 09:28:37 20° 66° (ENE) 09:32:01 437.575/2403.000
CUBEBUG 2 25 May 09:27:43 09:30:29 17° 89° (E) 09:33:22 437.445
Cosmos 2504 25 May 09:38:07 09:45:35 39° 89° (E) 09:52:46 435.465 / 435.565
ZACube-1 25 May 09:38:56 09:40:55 13° 88° (E) 09:43:06 437.345
NANOSAT C BR1 25 May 09:42:54 09:44:32 12° 63° (ENE) 09:46:24 145.865
RS-15 25 May 09:45:08 09:56:00 82° 121° (ESE) 10:07:14 29.354- 29.394
QB50P2 25 May 09:48:39 09:50:57 15° 64° (ENE) 09:53:27 145.880/145.840
CANX-2 25 May 09:50:29 09:54:39 59° 286° (WNW) 09:58:46 2200.000
CUTE 1.7 + AOD 2 25 May 09:54:22 09:58:32 59° 285° (WNW) 10:02:39 437.475
Oscar 11 25 May 09:54:39 09:58:34 34° 96° (E) 10:02:31 145.826/435.025
DELFI C3 25 May 09:56:28 09:59:48 25° 94° (E) 10:03:12 145.870
TIGRISAT 25 May 09:57:55 10:02:15 38° 71° (ENE) 10:06:36 435.000
CINEMA 3 25 May 09:57:55 10:02:44 71° 101° (E) 10:07:17 145.822/145.860
POPSAT HIP 1 25 May 10:00:42 10:03:40 19° 66° (ENE) 10:06:46 437.405
DUCHIFAT 1 25 May 10:04:13 10:07:16 20° 67° (ENE) 10:10:28 145.980
DOVE 4 25 May 10:05:04 10:10:07 52° 288° (WNW) 10:14:54 437.250
PCSat 25 May 10:05:19 10:10:34 50° 54° (NE) 10:15:50 145.827
UNISAT 6 25 May 10:17:06 10:21:45 62° 74° (ENE) 10:26:23 437.425
UWE-3 25 May 10:18:17 10:22:34 45° 98° (E) 10:26:42 435.000/436.395/437.385
BRITE-PL 25 May 10:20:13 10:24:28 21° 297° (WNW) 10:28:28 437.365/2234.400
SEEDS 25 May 10:20:24 10:24:17 37° 289° (WNW) 10:28:07 437.485
AISAT 25 May 10:28:26 10:29:46 11° 87° (E) 10:31:22 437.250
GOMX 1 25 May 10:33:03 10:37:14 22° 296° (WNW) 10:41:10 467.674
FUNcube-1 25 May 10:33:45 10:38:01 52° 99° (E) 10:42:09 145.935
BUGSAT 1 25 May 10:35:47 10:39:20 29° 69° (ENE) 10:43:01 437.445
COMPASS 1 25 May 10:37:03 10:40:43 30° 290° (WNW) 10:44:19 437.405
SO-50 25 May 10:40:03 10:42:36 14° 33° (NNE) 10:45:16 436.795
QB50P1 25 May 10:43:37 10:47:46 53° 73° (ENE) 10:51:59 145.935-145.965
POLYITAN 1 25 May 10:44:26 10:48:39 55° 73° (ENE) 10:52:53 437.675
HO-68 25 May 10:48:41 10:55:14 39° 296° (WNW) 11:01:40 435.675
AAUSAT CUBESAT 2 25 May 10:51:07 10:54:33 25° 291° (WNW) 10:57:53 437.432
ANTELSAT 25 May 11:00:33 11:05:06 47° 261° (W) 11:09:37 437.575/2403.000
CUBEBUG 2 25 May 11:03:11 11:07:32 46° 288° (WNW) 11:11:42 437.445
50 SAT 25 May 11:12:24 11:15:59 34° 97° (E) 11:19:32 437.505
ZACube-1 25 May 11:13:27 11:17:45 55° 287° (WNW) 11:21:54 437.345
NANOSAT C BR1 25 May 11:15:37 11:19:52 68° 258° (WSW) 11:24:10 145.865
UKube-1 25 May 11:19:15 11:23:37 73° 103° (ESE) 11:27:57 .
QB50P2 25 May 11:22:14 11:26:27 55° 260° (W) 11:30:42 145.880/145.840
HUMSAT D 25 May 11:23:35 11:27:47 88° 99° (E) 11:31:55 437.325/437.525
DX 1 25 May 11:25:02 11:29:28 90° 59° (ENE) 11:33:52 434.975-435.025
ESTCUBE 1 25 May 11:26:57 11:30:52 28° 95° (E) 11:34:49 437.505/2401.250
Cosmos 2504 25 May 11:30:58 11:38:56 45° 286° (WNW) 11:46:21 435.465 / 435.565
Oscar 11 25 May 11:31:14 11:34:35 22° 293° (WNW) 11:37:50 145.826/435.025
DELFI C3 25 May 11:31:32 11:34:53 25° 291° (WNW) 11:38:10 145.870
VELOX 1 25 May 11:31:33 11:35:57 52° 100° (E) 11:40:19 145.980
POPSAT HIP 1 25 May 11:35:13 11:39:17 41° 262° (W) 11:43:22 437.405
TIGRISAT 25 May 11:35:23 11:39:08 23° 267° (W) 11:42:46 435.000
CUBEBUG 1 25 May 11:35:43 11:39:38 30° 95° (E) 11:43:35 437.445
CINEMA 3 25 May 11:36:47 11:39:20 14° 298° (WNW) 11:41:38 145.822/145.860
DUCHIFAT 1 25 May 11:38:52 11:42:51 38° 263° (W) 11:46:52 145.980
GONETS M04 25 May 11:39:14 11:42:39 13° 76° (ENE) 11:46:45
Oscar 19 25 May 11:43:26 11:44:51 11° 58° (ENE) 11:46:32 437.125/150
PCSat 25 May 11:49:21 11:53:43 25° 251° (WSW) 11:57:57 145.827
UWE-3 25 May 11:55:44 11:58:45 18° 295° (WNW) 12:01:35 435.000/436.395/437.385
UNISAT 6 25 May 11:56:25 11:59:00 14° 271° (W) 12:01:21 437.425
RS-15 25 May 11:59:50 12:09:47 36° 328° (NNW) 12:19:56 29.354- 29.394
AISAT 25 May 12:02:26 12:06:56 70° 285° (WNW) 12:11:23 437.250
DANDE 25 May 12:08:57 12:13:37 20° 80° (E) 12:19:10 436.750
FUNcube-1 25 May 12:11:17 12:13:56 16° 296° (WNW) 12:16:24 145.935
BUGSAT 1 25 May 12:11:25 12:14:50 24° 266° (W) 12:18:13 437.445
SO-50 25 May 12:19:12 12:24:10 66° 54° (NE) 12:29:02 436.795
QB50P1 25 May 12:21:41 12:24:02 14° 271° (W) 12:26:11 145.935-145.965
SPROUT 25 May 12:22:10 12:25:51 27° 94° (E) 12:29:33 437.525
POLYITAN 1 25 May 12:22:42 12:24:58 14° 271° (W) 12:27:02 437.675
50 SAT 25 May 12:47:45 12:50:28 18° 293° (WNW) 12:53:04 437.505
CUSAT 1 25 May 12:50:25 12:57:15 50° 91° (E) 13:05:10 437.405
TISAT 1 25 May 12:52:42 12:56:46 41° 98° (E) 13:00:49 437.305
UKube-1 25 May 12:57:27 12:59:13 12° 298° (WNW) 13:00:48 .
ESTCUBE 1 25 May 13:03:47 13:07:42 29° 291° (WNW) 13:11:34 437.505/2401.250
VELOX 1 25 May 13:09:13 13:12:07 17° 296° (WNW) 13:14:53 145.980
SWISSCUBE 25 May 13:09:26 13:10:51 11° 87° (E) 13:12:33 437.505
CUBEBUG 1 25 May 13:12:10 13:15:55 26° 292° (WNW) 13:19:34 437.445
Oscar 19 25 May 13:18:15 13:23:27 79° 75° (ENE) 13:28:41 437.125/150
ITAMSAT 1 25 May 13:29:01 13:33:28 31° 67° (ENE) 13:38:02 435.822/435.867
GONETS M04 25 May 13:29:19 13:38:05 72° 94° (E) 13:46:54
AO-7 25 May 13:32:09 13:36:17 15° 46° (NE) 13:40:47 29.400- 29.500
DANDE 25 May 13:48:43 13:55:41 87° 280° (W) 14:04:09 436.750
JAS-2 25 May 13:50:04 13:52:00 12° 58° (ENE) 13:54:14 435.910
Gurwin Techsat 1B 25 May 13:55:18 14:00:24 50° 71° (ENE) 14:05:32 435.225
SPROUT 25 May 13:58:10 14:01:54 28° 291° (WNW) 14:05:34 437.525
SO-50 25 May 14:01:02 14:04:15 17° 250° (WSW) 14:07:14 436.795
Cosmos 2499 25 May 14:13:53 14:20:03 26° 85° (E) 14:26:09 435.465 / 435.565
RS-15 25 May 14:18:16 14:26:41 23° 1° (N) 14:35:23 29.354- 29.394
ITUPSAT 1 25 May 14:27:29 14:32:15 65° 102° (ESE) 14:37:01 437.325
TISAT 1 25 May 14:29:14 14:32:17 19° 294° (WNW) 14:35:11 437.305
CUSAT 1 25 May 14:33:23 14:40:13 38° 293° (WNW) 14:47:47 437.405
BEESAT 25 May 14:36:21 14:41:09 82° 104° (ESE) 14:45:57 436.000
STARS 25 May 14:44:23 14:45:02 10° 87° (E) 14:45:59 437.465
SWISSCUBE 25 May 14:44:35 14:49:22 77° 285° (WNW) 14:54:08 437.505
HORYU 2 25 May 15:00:33 15:04:37 35° 70° (ENE) 15:08:44 437.375
Oscar 19 25 May 15:01:07 15:03:31 13° 273° (W) 15:05:38 437.125/150
ITAMSAT 1 25 May 15:08:15 15:12:56 33° 264° (W) 15:17:36 435.822/435.867
KKS-1 25 May 15:09:23 15:13:25 33° 96° (E) 15:17:28 437.445
AO-7 25 May 15:19:29 15:27:35 62° 67° (ENE) 15:35:47 29.400- 29.500
O/OREOS (USA 219) 25 May 15:26:59 15:30:46 27° 104° (ESE) 15:34:37 437.305
GONETS M04 25 May 15:28:38 15:35:54 26° 296° (WNW) 15:42:54
JAS-2 25 May 15:29:40 15:36:25 70° 74° (ENE) 15:42:23 435.910
DANDE 25 May 15:34:57 15:40:28 21° 304° (NW) 15:46:12 436.750
Gurwin Techsat 1B 25 May 15:36:38 15:40:43 21° 269° (W) 15:44:39 435.225
Cosmos 2499 25 May 16:04:37 16:12:46 64° 282° (WNW) 16:20:18 435.465 / 435.565
ITUPSAT 1 25 May 16:06:49 16:09:40 15° 298° (WNW) 16:12:21 437.325
BEESAT 25 May 16:16:19 16:18:25 13° 299° (WNW) 16:20:17 436.000
STARS 25 May 16:17:40 16:22:07 74° 286° (WNW) 16:26:32 437.465
MOZHAYETS 4 25 May 16:26:24 16:29:31 18° 91° (E) 16:32:47
RS-15 25 May 16:33:06 16:43:31 39° 34° (NE) 16:54:30 29.354- 29.394
HORYU 2 25 May 16:37:46 16:41:22 23° 267° (W) 16:44:52 437.375
KKS-1 25 May 16:46:14 16:49:56 25° 293° (WNW) 16:53:32 437.445
O/OREOS (USA 219) 25 May 17:06:06 17:10:08 30° 302° (WNW) 17:14:07 437.305
CUTE-I 25 May 17:08:45 17:12:54 24° 64° (ENE) 17:17:10 437.470
AO-7 25 May 17:13:48 17:20:57 30° 266° (W) 17:27:57 29.400- 29.500
YUBILEINY 25 May 17:15:17 17:21:12 20° 60° (ENE) 17:27:29 435.215
JAS-2 25 May 17:17:10 17:21:58 19° 269° (W) 17:26:10 435.910
Cubesat XI-IV 25 May 17:28:05 17:32:51 36° 68° (ENE) 17:37:42 437.490
BEESAT 2 25 May 17:33:56 17:35:45 13° 110° (ESE) 17:37:45 435.950
CUBESAT XI-V 25 May 18:00:47 18:03:26 15° 89° (E) 18:06:18 437.345
MOZHAYETS 4 25 May 18:02:39 18:07:00 44° 288° (WNW) 18:11:20
Cosmos 2499 25 May 18:04:50 18:07:40 12° 304° (NW) 18:09:54 435.465 / 435.565
BRITE-PL 25 May 18:18:44 18:19:14 10° 57° (ENE) 18:20:04 437.365/2234.400
BEESAT 3 25 May 18:22:48 18:26:46 53° 119° (ESE) 18:30:48 437.485
PRISM 25 May 18:30:53 18:32:16 12° 89° (E) 18:33:54 437.425
STRAND 1 25 May 18:39:41 18:42:46 16° 89° (E) 18:46:02 437.568
RS-15 25 May 18:45:38 18:57:16 80° 240° (WSW) 19:09:22 29.354- 29.394
CUTE-I 25 May 18:47:37 18:52:43 46° 261° (W) 18:57:51 437.470
AIST 2 25 May 18:49:38 18:53:02 24° 114° (ESE) 18:56:34 435.215
Cubesat XI-IV 25 May 19:08:20 19:13:01 30° 265° (W) 19:17:39 437.490
BEESAT 2 25 May 19:09:18 19:13:23 63° 306° (NW) 19:17:30 435.950
YUBILEINY 25 May 19:10:41 19:19:26 88° 264° (W) 19:28:09 435.215
CANX-2 25 May 19:11:41 19:12:32 11° 63° (ENE) 19:13:36 2200.000
Cosmos 2491 25 May 19:14:04 19:22:23 51° 90° (E) 19:30:52 435.465 / 435.565
CUTE 1.7 + AOD 2 25 May 19:15:33 19:16:20 11° 63° (ENE) 19:17:22 437.475
HO-68 25 May 19:30:16 19:36:34 36° 63° (ENE) 19:42:59 435.675
Cosmos 2504 25 May 19:32:15 19:34:14 11° 55° (NE) 19:36:41 435.465 / 435.565
DOVE 4 25 May 19:34:10 19:38:02 23° 65° (ENE) 19:42:08 437.250
CUBESAT XI-V 25 May 19:36:42 19:41:19 57° 286° (WNW) 19:45:55 437.345
SEEDS 25 May 19:38:50 19:41:17 16° 66° (ENE) 19:43:54 437.485
BRITE-PL 25 May 19:51:43 19:56:43 69° 75° (ENE) 20:02:11 437.365/2234.400
COMPASS 1 25 May 19:54:11 19:57:00 18° 67° (ENE) 19:59:56 437.405
BEESAT 3 25 May 20:02:03 20:05:04 19° 318° (NW) 20:08:02 437.485
GOMX 1 25 May 20:02:14 20:07:13 57° 73° (ENE) 20:12:33 467.674
PRISM 25 May 20:04:05 20:08:10 60° 287° (WNW) 20:12:16 437.425
AAUSAT CUBESAT 2 25 May 20:07:18 20:10:26 21° 68° (ENE) 20:13:39 437.432
STRAND 1 25 May 20:17:22 20:22:28 62° 288° (WNW) 20:27:32 437.568
CUBEBUG 2 25 May 20:26:29 20:29:36 18° 65° (ENE) 20:32:53 437.445
AIST 2 25 May 20:27:30 20:31:28 37° 311° (NW) 20:35:28 435.215
M-CUBED/EXP-1 PRIME 25 May 20:28:16 20:31:36 83° 289° (WNW) 20:34:54 437.505
ZACube-1 25 May 20:35:46 20:38:02 14° 64° (ENE) 20:40:29 437.345
AUBIESAT-1 25 May 20:37:55 20:41:14 72° 290° (WNW) 20:44:31 437.475
CANX-2 25 May 20:43:38 20:47:54 78° 257° (WSW) 20:52:12 2200.000
DELFI C3 25 May 20:45:07 20:47:51 18° 67° (ENE) 20:50:42 145.870
CUTE 1.7 + AOD 2 25 May 20:47:26 20:51:42 79° 258° (WSW) 20:55:58 437.475
Oscar 11 25 May 20:50:08 20:53:53 30° 69° (ENE) 20:57:42 145.826/435.025
BEESAT 2 25 May 20:51:27 20:52:22 10° 327° (NNW) 20:53:09 435.950
CINEMA 3 25 May 20:59:23 21:04:20 70° 75° (ENE) 21:09:23 145.822/145.860
RS-15 25 May 21:00:18 21:08:17 20° 259° (WSW) 21:15:40 29.354- 29.394
AIST 1 25 May 21:00:48 21:05:03 85° 98° (E) 21:09:22
YUBILEINY 25 May 21:09:41 21:15:09 18° 282° (WNW) 21:20:08 435.215
DOVE 4 25 May 21:10:29 21:15:25 50° 262° (W) 21:20:34 437.250
Cosmos 2491 25 May 21:11:33 21:19:36 37° 291° (WNW) 21:27:34 435.465 / 435.565
SEEDS 25 May 21:12:38 21:16:44 49° 261° (W) 21:20:51 437.485
UWE-3 25 May 21:15:32 21:19:56 42° 72° (ENE) 21:24:23 435.000/436.395/437.385
HO-68 25 May 21:17:14 21:24:09 48° 261° (W) 21:31:03 435.675
Cosmos 2504 25 May 21:22:12 21:29:25 69° 79° (ENE) 21:36:35 435.465 / 435.565
AISAT 25 May 21:27:12 21:28:59 13° 62° (ENE) 21:30:58 437.250
COMPASS 1 25 May 21:28:27 21:32:25 40° 262° (W) 21:36:23 437.405
FUNcube-1 25 May 21:29:38 21:34:00 46° 72° (ENE) 21:38:24 145.935
BRITE-PL 25 May 21:32:55 21:35:58 15° 275° (W) 21:38:52 437.365/2234.400
AAUSAT CUBESAT 2 25 May 21:42:05 21:45:53 33° 264° (W) 21:49:40 437.432
GOMX 1 25 May 21:42:11 21:45:50 19° 272° (W) 21:49:25 467.674
50 SAT 25 May 21:57:59 22:01:09 23° 69° (ENE) 22:04:24 437.505
CUBEBUG 2 25 May 22:01:14 22:05:55 54° 261° (W) 22:10:36 437.445
ZACube-1 25 May 22:09:19 22:13:54 68° 259° (W) 22:18:29 437.345
UNISAT 6 25 May 22:10:58 22:12:22 12° 87° (E) 22:14:01 437.425
UKube-1 25 May 22:14:29 22:18:46 67° 74° (ENE) 22:23:05 .
HUMSAT D 25 May 22:15:30 22:19:47 67° 75° (ENE) 22:24:05 437.325/437.525
DELFI C3 25 May 22:18:59 22:22:44 37° 263° (W) 22:26:29 145.870
DX 1 25 May 22:21:01 22:25:22 85° 76° (ENE) 22:29:46 434.975-435.025
Oscar 11 25 May 22:26:27 22:30:05 25° 266° (W) 22:33:39 145.826/435.025
ESTCUBE 1 25 May 22:27:23 22:31:12 29° 69° (ENE) 22:35:06 437.505/2401.250
VELOX 1 25 May 22:29:39 22:33:55 50° 72° (ENE) 22:38:15 145.980
CUBEBUG 1 25 May 22:32:40 22:36:21 28° 69° (ENE) 22:40:07 437.445
CINEMA 3 25 May 22:39:20 22:42:06 14° 273° (W) 22:44:38 145.822/145.860
DANDE 25 May 22:49:10 22:54:21 19° 55° (NE) 22:59:18 436.750
ANTELSAT 25 May 22:52:15 22:56:13 33° 96° (E) 23:00:08 437.575/2403.000
UWE-3 25 May 22:53:06 22:56:40 21° 269° (W) 23:00:07 435.000/436.395/437.385
AISAT 25 May 23:00:35 23:05:02 73° 258° (WSW) 23:09:31 437.250
NANOSAT C BR1 25 May 23:00:52 23:03:48 18° 91° (E) 23:06:52 145.865
FUNcube-1 25 May 23:07:19 23:10:35 18° 269° (W) 23:13:43 145.935
QB50P2 25 May 23:07:31 23:10:52 22° 93° (E) 23:14:17 145.880/145.840
Cosmos 2504 25 May 23:17:00 23:22:08 20° 278° (W) 23:26:58 435.465 / 435.565
SPROUT 25 May 23:17:14 23:20:38 23° 68° (ENE) 23:24:08 437.525
POPSAT HIP 1 25 May 23:19:51 23:23:37 29° 95° (E) 23:27:23 437.405
DUCHIFAT 1 25 May 23:22:56 23:26:44 31° 96° (E) 23:30:33 145.980
TIGRISAT 25 May 23:25:28 23:29:54 75° 102° (ESE) 23:34:12 435.000
CUSAT 1 25 May 23:29:33 23:36:29 39° 67° (ENE) 23:42:08 437.405
50 SAT 25 May 23:32:17 23:35:46 28° 265° (W) 23:39:13 437.505
GONETS M04 25 May 23:39:11 23:47:07 37° 69° (ENE) 23:55:06
UNISAT 6 25 May 23:45:21 23:49:44 64° 286° (WNW) 23:54:00 437.425
TISAT 1 25 May 23:45:29 23:49:18 34° 70° (ENE) 23:53:12 437.305
BUGSAT 1 25 May 23:52:05 23:56:13 45° 99° (E) 00:00:19 437.445
UKube-1 25 May 23:53:57 23:55:26 11° 272° (W) 23:56:40 .
HUMSAT D 25 May 23:54:33 23:56:04 11° 273° (W) 23:57:18 437.325/437.525
QB50P1 26 May 00:03:42 00:08:02 88° 289° (WNW) 00:12:18 145.935-145.965
ESTCUBE 1 26 May 00:04:11 00:08:03 28° 265° (W) 00:11:54 437.505/2401.250
POLYITAN 1 26 May 00:04:56 00:09:16 84° 284° (WNW) 00:13:32 437.675
ISS 26 May 00:06:03 00:09:13 54° 142° (SE) 00:12:25 145.825
VELOX 1 26 May 00:08:05 00:10:50 16° 270° (W) 00:13:26 145.980
CUBEBUG 1 26 May 00:08:55 00:12:40 27° 265° (W) 00:16:25 437.445
BEESAT 26 May 00:09:04 00:10:52 12° 61° (ENE) 00:12:55 436.000
SWISSCUBE 26 May 00:16:18 00:19:02 16° 63° (ENE) 00:21:57 437.505
ANTELSAT 26 May 00:29:20 00:32:52 23° 293° (WNW) 00:36:15 437.575/2403.000
DANDE 26 May 00:31:05 00:39:14 85° 79° (E) 00:45:41 436.750
NANOSAT C BR1 26 May 00:35:50 00:39:51 39° 289° (WNW) 00:43:49 145.865
QB50P2 26 May 00:42:59 00:46:50 32° 290° (WNW) 00:50:38 145.880/145.840
PCSat 26 May 00:47:45 00:52:42 39° 112° (ESE) 00:57:45 145.827
SPROUT 26 May 00:52:40 00:56:35 32° 264° (W) 01:00:30 437.525
POPSAT HIP 1 26 May 00:55:50 00:59:24 25° 292° (WNW) 01:02:52 437.405
DUCHIFAT 1 26 May 00:58:57 01:02:26 24° 292° (WNW) 01:05:48 145.980
TIGRISAT 26 May 01:04:27 01:06:05 12° 298° (WNW) 01:07:28 435.000
CUSAT 1 26 May 01:12:27 01:19:10 38° 272° (W) 01:24:29 437.405
TISAT 1 26 May 01:21:53 01:25:12 21° 267° (W) 01:28:25 437.305
BUGSAT 1 26 May 01:28:29 01:31:21 17° 295° (WNW) 01:34:05 437.445
Oscar 19 26 May 01:29:47 01:34:03 26° 93° (E) 01:38:23 437.125/150
VERMONT LUNAR 26 May 01:33:56 01:34:42 11° 149° (SSE) 01:35:33 437.305
ITUPSAT 1 26 May 01:34:49 01:39:35 81° 75° (ENE) 01:44:22 437.325
O/OREOS (USA 219) 26 May 01:35:32 01:39:58 59° 64° (ENE) 01:44:22 437.305
GONETS M04 26 May 01:35:52 01:44:17 51° 270° (W) 01:52:33
STARS 26 May 01:41:59 01:43:26 12° 62° (ENE) 01:45:05 437.465
ISS 26 May 01:42:57 01:45:48 27° 340° (NNW) 01:48:39 145.825
BEESAT 26 May 01:43:22 01:48:07 82° 257° (WSW) 01:52:55 436.000
BEESAT 2 26 May 01:51:13 01:53:22 14° 37° (NE) 01:55:36 435.950
SWISSCUBE 26 May 01:51:45 01:56:27 62° 259° (W) 02:01:11 437.505
Cosmos 2499 26 May 01:55:00 02:01:42 44° 74° (ENE) 02:08:29 435.465 / 435.565
KKS-1 26 May 02:08:09 02:12:08 33° 70° (ENE) 02:16:12 437.445
Gurwin Techsat 1B 26 May 02:11:45 02:15:21 19° 90° (E) 02:19:07 435.225
DANDE 26 May 02:16:07 02:21:14 19° 281° (W) 02:25:28 436.750
PCSat 26 May 02:31:18 02:36:12 33° 311° (NW) 02:41:06 145.827
SO-50 26 May 02:35:44 02:38:47 18° 111° (ESE) 02:42:03 436.795
BEESAT 3 26 May 02:40:57 02:44:49 39° 50° (NE) 02:48:38 437.485
VERMONT LUNAR 26 May 03:08:23 03:11:23 36° 163° (SSE) 03:14:22 437.305
Oscar 19 26 May 03:08:45 03:13:33 39° 291° (WNW) 03:18:16 437.125/150
AIST 2 26 May 03:10:21 03:13:44 23° 44° (NE) 03:17:07 435.215
STARS 26 May 03:14:51 03:19:18 79° 257° (WSW) 03:23:47 437.465
O/OREOS (USA 219) 26 May 03:16:39 03:18:56 13° 260° (W) 03:21:00 437.305
ITUPSAT 1 26 May 03:16:55 03:18:11 11° 273° (W) 03:19:08 437.325
ITAMSAT 1 26 May 03:19:40 03:24:55 82° 103° (ESE) 03:30:10 435.822/435.867
ISS 26 May 03:20:50 03:23:00 16° 360° (N) 03:25:09 145.825
AO-7 26 May 03:21:59 03:27:02 18° 87° (E) 03:32:33 29.400- 29.500
PHONESAT 2.4 26 May 03:23:05 03:25:41 20° 154° (SSE) 03:28:19 2401.200-2431.200
BEESAT 2 26 May 03:27:56 03:32:04 85° 238° (WSW) 03:36:07 435.950
MOZHAYETS 4 26 May 03:29:16 03:32:30 20° 66° (ENE) 03:35:51
KKS-1 26 May 03:45:08 03:48:50 24° 266° (W) 03:52:29 437.445
Cosmos 2499 26 May 03:48:33 03:54:40 32° 273° (W) 04:00:42 435.465 / 435.565
Gurwin Techsat 1B 26 May 03:50:33 03:55:46 57° 288° (WNW) 04:00:57 435.225
SO-50 26 May 04:14:15 04:18:54 58° 308° (NW) 04:23:42 436.795
BEESAT 3 26 May 04:19:30 04:22:33 20° 247° (WSW) 04:25:28 437.485
JAS-2 26 May 04:23:14 04:28:17 52° 100° (E) 04:33:28 435.910
HORYU 2 26 May 04:27:11 04:31:36 65° 101° (ESE) 04:36:00 437.375
VERMONT LUNAR 26 May 04:45:12 04:48:23 61° 180° (S) 04:51:33 437.305
AIST 2 26 May 04:48:29 04:52:31 43° 243° (WSW) 04:56:26 435.215
ISS 26 May 04:57:23 05:00:12 26° 19° (NNE) 05:03:02 145.825
PHONESAT 2.4 26 May 05:00:01 05:03:25 52° 170° (S) 05:06:48 2401.200-2431.200
ITAMSAT 1 26 May 05:00:59 05:03:49 14° 300° (WNW) 05:06:26 435.822/435.867
MOZHAYETS 4 26 May 05:05:05 05:09:28 44° 262° (W) 05:13:50
CUBESAT XI-V 26 May 05:05:13 05:08:03 17° 64° (ENE) 05:11:03 437.345
AO-7 26 May 05:12:42 05:21:08 87° 108° (ESE) 05:29:31 29.400- 29.500
PRISM 26 May 05:23:10 05:23:42 10° 62° (ENE) 05:24:27 437.425
Cosmos 2491 26 May 05:23:55 05:30:55 26° 64° (ENE) 05:38:09 435.465 / 435.565
M-CUBED/EXP-1 PRIME 26 May 05:44:10 05:46:18 14° 61° (ENE) 05:48:30 437.505
Cubesat XI-IV 26 May 05:46:16 05:48:30 13° 87° (E) 05:51:03 437.490
AUBIESAT-1 26 May 05:53:10 05:55:30 15° 62° (ENE) 05:57:51 437.475
STRAND 1 26 May 05:55:56 06:00:03 26° 66° (ENE) 06:04:16 437.568
SO-50 26 May 05:58:22 06:00:33 13° 329° (NNW) 06:02:38 436.795
HORYU 2 26 May 06:05:29 06:07:46 14° 297° (WNW) 06:09:51 437.375
JAS-2 26 May 06:09:24 06:13:08 20° 297° (WNW) 06:16:44 435.910
YUBILEINY 26 May 06:18:36 06:24:35 22° 81° (E) 06:30:57 435.215
VERMONT LUNAR 26 May 06:22:24 06:25:23 36° 196° (SSW) 06:28:21 437.305
ISS 26 May 06:33:35 06:36:49 59° 218° (SW) 06:40:02 145.825
PHONESAT 2.4 26 May 06:37:58 06:41:23 59° 187° (S) 06:44:48 2401.200-2431.200
CUBESAT XI-V 26 May 06:40:36 06:45:06 54° 261° (W) 06:49:39 437.345
